Location: Julian California
(33.0790°N, 116.6010°W)
Time: 06:13:28
(UTC-07:00)

OAO 2 Rocket - Pass Details

Date: 19 May 2017
Orbit: 677 x 746 km, 35.0° (Epoch: 28 May)

Event Time Altitude Azimuth Distance (km) Brightness Sun altitude
Rises 22:00:32 0° 251° (WSW) 3,028 6.9 -24.3°
Reaches altitude 10° 22:02:54 10° 251° (WSW) 2,122 6.0 -24.6°
Enters shadow 22:07:28 73° 222° (SW) 723 3.2 -25.2°
